Location: Del Amo
(33.8464°N, 118.2104°W)
Time: 18:53:15
(UTC+00:00)

Vanguard 1 Rocket - Pass Details

Date: 17 September 2024
Orbit: 650 x 4218 km, 34.3° (Epoch: 04 October)

Event Time Altitude Azimuth Distance (km) Brightness Sun altitude
Rises 14:54:18 0° 281° (WNW) 6,688 11.2 15.0°
Reaches altitude 10° 14:58:03 10° 281° (W) 6,033 11.0 15.7°
Maximum altitude 15:19:57 82° 198° (SSW) 4,167 11.1 20.2°
Drops below altitude 10° 15:45:46 10° 115° (ESE) 6,893 13.7 25.4°
Sets 15:50:25 0° 114° (ESE) 7,620 13.4 26.3°
